TimeCDT,TemperatureF,Dew PointF,Humidity,Sea Level PressureIn,VisibilityMPH,Wind Direction,Wind SpeedMPH,Gust SpeedMPH,PrecipitationIn,Events,Conditions,WindDirDegrees,DateUTC
12:56 AM,61.9,52.0,70,30.00,10.0,Variable,3.5,-,N/A,,Clear,0,2013-07-28 05:56:00
1:56 AM,55.9,52.9,89,30.00,10.0,Calm,Calm,-,N/A,,Clear,0,2013-07-28 06:56:00
2:56 AM,55.9,54.0,93,30.00,10.0,Calm,Calm,-,N/A,,Clear,0,2013-07-28 07:56:00
3:56 AM,54.0,52.9,96,30.00,10.0,Calm,Calm,-,N/A,,Clear,0,2013-07-28 08:56:00
4:56 AM,52.9,52.0,97,30.01,10.0,Calm,Calm,-,N/A,,Clear,0,2013-07-28 09:56:00
5:56 AM,52.0,52.0,100,30.04,10.0,Calm,Calm,-,N/A,,Clear,0,2013-07-28 10:56:00
6:56 AM,55.9,54.9,96,30.04,10.0,Calm,Calm,-,N/A,,Clear,0,2013-07-28 11:56:00
7:56 AM,61.0,55.9,83,30.05,10.0,South,3.5,-,N/A,,Clear,190,2013-07-28 12:56:00
8:56 AM,65.8,54.9,68,30.06,10.0,South,5.8,-,N/A,,Clear,190,2013-07-28 13:56:00
9:56 AM,68.9,50.0,51,30.06,10.0,West,5.8,-,N/A,,Clear,260,2013-07-28 14:56:00
10:56 AM,70.0,48.9,47,30.07,10.0,Calm,Calm,-,N/A,,Partly Cloudy,0,2013-07-28 15:56:00
11:56 AM,72.0,50.0,46,30.06,10.0,West,4.6,-,N/A,,Partly Cloudy,280,2013-07-28 16:56:00
12:56 PM,72.9,48.9,43,30.05,10.0,West,10.4,17.3,N/A,,Partly Cloudy,270,2013-07-28 17:56:00
1:56 PM,73.9,50.9,44,30.04,10.0,WNW,4.6,-,N/A,,Partly Cloudy,290,2013-07-28 18:56:00
2:56 PM,74.8,50.9,43,30.03,10.0,West,8.1,-,N/A,,Partly Cloudy,280,2013-07-28 19:56:00
3:56 PM,75.9,52.9,45,30.03,10.0,WSW,9.2,-,N/A,,Partly Cloudy,240,2013-07-28 20:56:00
4:56 PM,75.9,52.9,45,30.03,10.0,West,9.2,-,N/A,,Scattered Clouds,280,2013-07-28 21:56:00
5:56 PM,75.9,52.0,43,30.04,10.0,WNW,6.9,-,N/A,,Scattered Clouds,300,2013-07-28 22:56:00
6:56 PM,74.8,54.9,50,30.05,10.0,West,3.5,-,N/A,,Partly Cloudy,270,2013-07-28 23:56:00
7:56 PM,70.9,54.9,57,30.06,10.0,Calm,Calm,-,N/A,,Clear,0,2013-07-29 00:56:00
8:56 PM,66.9,57.9,73,30.06,10.0,Calm,Calm,-,N/A,,Clear,0,2013-07-29 01:56:00
9:56 PM,63.9,57.9,81,30.08,10.0,Calm,Calm,-,N/A,,Clear,0,2013-07-29 02:56:00
10:56 PM,63.0,56.8,80,30.08,10.0,SE,4.6,-,N/A,,Clear,130,2013-07-29 03:56:00
11:56 PM,63.0,57.9,84,30.08,10.0,Calm,Calm,-,N/A,,Clear,0,2013-07-29 04:56:00